Location: Newark
(0.5300°S, 127.4800°E)
Time: 04:43:29
(UTC+00:00)

A-11 Canister half - Pass Details

Date: 24 September 2019
Orbit: 1514 x 1686 km, 47.2° (Epoch: 21 October)

Event Time Altitude Azimuth Distance (km) Brightness Sun altitude
Rises 08:08:08 0° 338° (NNW) 4,677 11.8 18.5°
Reaches altitude 10° 08:11:31 10° 347° (NNW) 3,716 11.2 17.7°
Maximum altitude 08:19:52 35° 50° (NE) 2,333 9.8 15.6°
Drops below altitude 10° 08:28:28 10° 112° (ESE) 3,844 10.6 13.5°
Sets 08:32:00 0° 121° (ESE) 4,857 11.1 12.6°
